Starlink 32163

operational
NORAD ID: 60262 Int'l Des: 2024-131 Owner: SPXS Country: US Constellation: starlink
LEOCIRCULAR

Starlink 32163について

説明を読み込み中...

リアルタイム位置

3D地球を読み込み中...

次回通過

高度履歴

Altitude vs Time

uPlot chart will show altitude changes over time

軌道要素

1 60262U 24131H 25305.24129989 -.00000957 00000-0 -20216-4 0 9994
2 60262 53.1601 288.9833 0001344 73.9063 286.2086 15.30182268 72057
Epoch: Nov 1, 2025 • Age: 31 hours

現在のステータス

高度 480.2 km
速度 7.63 km/s
衛星直下点 -17.41°S, 31.65°E
打ち上げ日 Jul 27, 2024
運用期間 1.2 years
タイプ internet

技術仕様

分類 Payload
質量 730.00 kg
乾燥質量 700.00 kg
総質量 730.00 kg
長さ 0.30 m
直径 4.10 m
スパン 29.00 m
形状 Box + pan
製造者 SPXS
バスタイプ Starlink V2M
フェーズステータス In Orbit
所有者/国 SPXS/US

大規模コンステレーション

Loading constellations...